Kingsport, TN

5:00 PM EST on February 12, 2016 (GMT -0500)
Tri-Cities Regional Tennessee / Virginia

Weather History for KTRI - November, 2010

Change the Weather History Date:

Monday, November 22, 2010

  Actual Average Record
Temperature  
Mean Temperature 53 °F 44 °F  
Max Temperature 70 °F 56 °F 73 °F (1979)
Min Temperature 36 °F 33 °F 11 °F (2008)
Degree Days  
Heating Degree Days 12 21  
Month to date heating degree days 374 374  
Since 1 July heating degree days 661 709  
Cooling Degree Days 0 0  
Month to date cooling degree days 0 0  
Year to date cooling degree days 1455 980  
Growing Degree Days 3 (Base 50)    
Moisture  
Dew Point 42 °F    
Average Humidity 65    
Maximum Humidity 92    
Minimum Humidity 37    
Precipitation  
Precipitation 0.00 in 0.11 in 0.75 in (1989)
Month to date precipitation 2.00 2.19  
Year to date precipitation 31.95 36.73  
Snow  
Snow 0.00 in 0.00 in - ()
Month to date snowfall T 0.1  
Since 1 July snowfall T 0.2  
Since 1 September snowfall T 0.2  
Snow Depth 0.00 in    
Sea Level Pressure  
Sea Level Pressure 30.22 in    
Wind  
Wind Speed 2 mph (SW)    
Max Wind Speed 18 mph    
Max Gust Speed 22 mph    
Visibility 9 miles    
Events      
T = Trace of Precipitation, MM = Missing Value Source: NWS Daily Summary

Daily Weather History Graph

Daily Weather History Graph

Search for Another Location

Airport or City:

Trip Planner

Search our weather history database for the weather conditions in past years. The results will help you decide how hot, cold, wet, or windy it might be!

Date:

Astronomy

Nov. 22, 2010 Rise Set
Actual Time 7:14 AM EST 5:17 PM EST
Civil Twilight 6:46 AM EST 5:44 PM EST
Nautical Twilight 6:14 AM EST 6:16 PM EST
Astronomical Twilight 5:43 AM EST 6:47 PM EST
Moon 6:00 PM EST (11/22) 8:11 AM EST (11/22)
Length of Visible Light 10h 58m
Length of Day
10h 02m
Full, 99% of the Moon is Illuminated
Nov 22
Full
Nov 28
Last Quarter
Dec 5
New
Dec 13
First Quarter
Dec 21
Full

Hourly Weather History & Observations

Time (EST) Temp. Dew Point Humidity Pressure Visibility Wind Dir Wind Speed Gust Speed Precip Events Conditions
12:53 AM 44.1 °F 41.0 °F 89% 30.27 in 10.0 mi Calm Calm - N/A   Mostly Cloudy
1:53 AM 43.0 °F 39.9 °F 89% 30.25 in 10.0 mi Calm Calm - N/A   Mostly Cloudy
2:53 AM 43.0 °F 39.9 °F 89% 30.27 in 10.0 mi Calm Calm - N/A   Mostly Cloudy
3:53 AM 41.0 °F 37.9 °F 89% 30.28 in 9.0 mi Calm Calm - N/A   Mostly Cloudy
4:53 AM 39.9 °F 37.9 °F 93% 30.29 in 7.0 mi Calm Calm - N/A   Scattered Clouds
5:53 AM 37.0 °F 35.1 °F 93% 30.30 in 4.0 mi Calm Calm - N/A   Partly Cloudy
6:53 AM 39.0 °F 37.0 °F 93% 30.31 in 5.0 mi Calm Calm - N/A   Partly Cloudy
7:53 AM 39.0 °F 37.0 °F 93% 30.32 in 6.0 mi Calm Calm - N/A   Scattered Clouds
8:53 AM 46.9 °F 42.1 °F 83% 30.32 in 8.0 mi Calm Calm - N/A   Scattered Clouds
9:53 AM 54.0 °F 45.0 °F 72% 30.31 in 10.0 mi Calm Calm - N/A   Scattered Clouds
10:53 AM 61.0 °F 46.0 °F 58% 30.29 in 10.0 mi Calm Calm - N/A   Scattered Clouds
11:53 AM 66.0 °F 46.0 °F 48% 30.25 in 10.0 mi Calm Calm - N/A   Partly Cloudy
12:53 PM 68.0 °F 43.0 °F 40% 30.22 in 10.0 mi SW 16.1 mph 19.6 mph N/A   Scattered Clouds
1:53 PM 69.1 °F 43.0 °F 39% 30.18 in 10.0 mi SW 10.4 mph - N/A   Scattered Clouds
2:53 PM 69.1 °F 42.1 °F 38% 30.16 in 10.0 mi SW 11.5 mph - N/A   Scattered Clouds
3:53 PM 68.0 °F 43.0 °F 40% 30.15 in 10.0 mi WSW 9.2 mph - N/A   Scattered Clouds
4:53 PM 64.0 °F 45.0 °F 50% 30.14 in 10.0 mi WSW 5.8 mph - N/A   Scattered Clouds
5:53 PM 61.0 °F 43.0 °F 52% 30.14 in 10.0 mi SW 4.6 mph - N/A   Partly Cloudy
6:53 PM 52.0 °F 43.0 °F 71% 30.15 in 10.0 mi Calm Calm - N/A   Clear
7:53 PM 51.1 °F 43.0 °F 74% 30.15 in 10.0 mi Calm Calm - N/A   Clear
8:53 PM 54.0 °F 43.0 °F 66% 30.14 in 10.0 mi Calm Calm - N/A   Clear
9:53 PM 50.0 °F 43.0 °F 77% 30.14 in 10.0 mi Calm Calm - N/A   Clear
10:53 PM 48.9 °F 43.0 °F 80% 30.12 in 10.0 mi Calm Calm - N/A   Clear
11:53 PM 50.0 °F 44.1 °F 80% 30.10 in 10.0 mi Calm Calm - N/A   Clear